Miscellaneous Local Product
Issued by NWS Hastings, NE

Home | Current Version | Previous Version | Text Only | Print | Product List | Glossary Off
Versions: 1 2 3 4 5 6 7 8 9 10 11 12 13 14 15 16 17 18 19 20 21 22 23 24 25 26 27 28 29 30 31 32 33 34 35 36 37 38 39 40 41 42 43 44 45 46 47 48 49 50

000
AXUS43 KGID 260502
MISGRI

GID CWA HOURLY WEATHER ROUNDUP
NATIONAL WEATHER SERVICE HASTINGS NE
1100 PM CST SUN JAN 25 2015

NOTE: "FAIR" INDICATES FEW OR NO CLOUDS BELOW 12,000 FEET WITH NO
SIGNIFICANT WEATHER AND/OR OBSTRUCTIONS TO VISIBILITY.

...SOUTH CENTRAL NEBRASKA...

CITY           SKY/WX    TMP DP  RH WIND       PRES   REMARKS
GRAND ISLAND   MOCLDY    30  26  85 SW5       30.05F WCI  25
HASTINGS       PTCLDY    29  24  82 SW3       30.05F
KEARNEY        CLOUDY    34  27  75 SW8       30.05F WCI  27
ORD            CLOUDY    31  26  82 VRB3      30.01F
YORK           CLOUDY    30  30 100 SW7       30.06S WCI  23
AURORA         MOCLDY    29  26  87 SW3       30.05S
LEXINGTON      CLOUDY    38  29  71 S6        30.05S WCI  33
HOLDREGE       CLOUDY    36  27  72 SW6       30.06S WCI  31
HEBRON         PTCLDY    23  20  90 CALM      30.09S

...NEBRASKA PANHANDLE...

CITY           SKY/WX    TMP DP  RH WIND       PRES   REMARKS
CHADRON        CLEAR     45  31  58 W17       30.04S
ALLIANCE       PTCLDY    36  30  79 W13       30.06S WCI  27
SCOTTSBLUFF    CLEAR     33  29  85 N3        30.12R
SIDNEY         CLEAR     41  30  65 W15       30.13S

...WESTERN AND NORTH CENTRAL NEBRASKA...

CITY           SKY/WX    TMP DP  RH WIND       PRES   REMARKS
VALENTINE      CLEAR     32  26  78 W6        29.95F WCI  26
AINSWORTH      CLEAR     36  27  71 SW8       29.95S WCI  29
ONEILL         CLOUDY    34  31  90 S7        29.99S WCI  28
BROKEN BOW     CLOUDY    34  29  82 CALM      30.01F
IMPERIAL       CLEAR     39  29  67 NW13      30.07S WCI  31
NORTH PLATTE   MOCLDY    36  26  67 CALM      30.02F
MCCOOK         MOCLDY    38  24  57 SW6       30.05F WCI  33

...EASTERN NEBRASKA...

CITY           SKY/WX    TMP DP  RH WIND       PRES   REMARKS
NORFOLK        CLOUDY    33  31  92 SW7       30.02S WCI  27
SO SIOUX CITY  CLOUDY    32  30  92 S3        30.04S
TEKAMAH        PTCLDY    30  29  96 S7        30.04F WCI  23
COLUMBUS       CLOUDY    30  25  80 CALM      30.04F
ALBION         CLOUDY    32  29  88 CALM      30.02S
OMAHA EPPLEY   PTCLDY    33  30  88 S3        30.06F
OFFUTT AFB     PTCLDY    31  29  91 SE6       30.06F WCI  26
MILLARD        CLEAR     33  31  92 CALM      30.06F
LINCOLN        CLOUDY    32  29  88 S3        30.08F
NEBRASKA CITY  CLOUDY    34  29  82 SE5       30.08S WCI  30
BEATRICE       CLEAR     26  25  96 CALM      30.09R FOG
FALLS CITY     CLOUDY    32  27  81 SE3       30.09F

...NORTHERN KANSAS...

CITY           SKY/WX    TMP DP  RH WIND       PRES   REMARKS
GOODLAND       CLEAR     37  30  75 W13       30.12S WCI  29
HILL CITY      MOCLDY    30  20  66 W5        30.09F WCI  25
NORTON         CLOUDY    34  21  60 SW7       30.06S WCI  28
PHILLIPSBURG   PTCLDY    32  25  74 W3        30.10S
SMITH CENTER   PTCLDY    28  23  80 SW5       30.11R WCI  23
BELOIT         CLEAR     21  19  93 CALM      30.10S
HAYS           CLEAR     30  18  59 SW6       30.12R WCI  24
RUSSELL        CLEAR     28  24  85 S9        30.09F WCI  19
CONCORDIA      PTCLDY    30  28  92 S5        30.09S WCI  25
SALINA         CLEAR     27  23  85 SW6       30.12S WCI  20
TOPEKA         CLEAR     30  25  81 CALM      30.12R



USA.gov is the U.S. government's official web portal to all federal, state and local government web resources and services.